DELTA 1 DEB, 18870

Orbit data source: Space-Track

DELTA 1 DEB, 18870 is space debris in LEO originally from a launch on Tue, 06 Nov 1973 UTC launched from the Air Force Western Test Range (AFWTR). Debris objects in space refer to the collection of defunct objects orbiting the Earth. Examples of debris include non-operational satellites, rocket bodies, and fragments generated from explosions, collisions, or faulty payload assembly.

Loading next visibility...
Identifier
18870, 1973-086HA
Orbit
LEO
Country
Flag of USUS
Related business
Manufacturer
Unknown
Mission
Spacecraft
Bus & Motor
Unknown
Mass
Unknown
Launch date (UTC)
1973-11-06 (52 years ago)
Launch vehicle
Unknown
Launch site
Air Force Western Test Range (AFWTR)
Object type
Payload
Rocket body
Debris
Shape & HBR
Unknown shape, 0.1 m
Radar Cross Section
Small (<0.1 m²)

Expand to show TLE details & history
Last TLE update: 3 days ago

TLE from 3 days ago
0 DELTA 1 DEB
1 18870U 73086HA  26120.27741249  .00000332  00000-0  41199-2 0  9999
2 18870 101.7807  51.4688 0341446 226.9156 130.2836 11.95244608577333
Epoch: 2026-04-30T06:39Z
TLE epoch observation values (Epoch: 2026-04-30T06:39:28.439Z)
Latitude
-0.00001°
Longitude
93.37398°
Altitude
1,888.438 km
Speed
6.866 km/s
True Right ascension
03h 25m 52s
True Declination
0° 00' 00"
Sunlit
Object was in daylight at epoch
Visualization orbit readout
Latitude
Unknown
Longitude
Unknown
Altitude
Unknown
Speed
Unknown
Apparent Right ascension
Unknown
Apparent Declination
Unknown
Sunlit
N/A
Visualization observer readout
Local Sidereal Time
08:21:47
Azimuth
Unknown
Elevation
Unknown
Doppler factor
Unknown
Orbital elements
Apogee altitude
1,975.658 km
Perigee altitude
1,424.019 km
Semi-major axis
8,077.976 km
Eccentricity
0.03414
Inclination
101.7807°
RAAN
51.4688°
Arg. of periapsis
226.9156°
True anomaly
133.18693°
Mean anomaly
130.2836°
Eccentric anomaly
131.7433°
Mean motion
2.98944 °/min
Orbital period
120.42 mins
BSTAR
0.0041199
Loading maneuver chart data...
Computing Atmospheric mass density...
Loading historical data...
Loading historical data...
Loading historical data...
Loading historical data...
Loading historical data...
Loading historical data...
Loading historical data...

Documentation

Showing up to 5 results
|